Satellite: FO-70
Catalog number: 37380
Epoch time:      11314.35569910
Element set:    0021
Inclination:      071.9725 deg
RA of node:       077.2302 deg
Eccentricity:    0.0017266
Arg of perigee:   001.0504 deg
Mean anomaly:     359.0709 deg
Mean motion:   14.76511729 rev/day
Decay rate:      1.370e-05 rev/day^2
Epoch rev:           00353
Checksum:              270

/EX
SB KEPS @ AMSAT  $ORB11314.W
Orbital Elements  11314.WEATHER

HR AMSAT ORBITAL ELEMENTS FOR WEATHER SATELLITES
FROM WA5QGD FORT WORTH,TX November 10, 2011
Send Subscribe/unsubscribe to KEPS at http://www.amsat.org/mailman/listinfo/kep
BID: ORB11314.W
TO ALL RADIO AMATEURS BT

Satellite: NOAA-10
Catalog number: 16969
Epoch time:      11313.93443314
Element set:    0704
Inclination:      098.6083 deg
RA of node:       341.6481 deg
Eccentricity:    0.0012409
Arg of perigee:   155.6906 deg
Mean anomaly:     204.4863 deg
Mean motion:   14.27494825 rev/day
Decay rate:       1.23e-06 rev/day^2
Epoch rev:           30844
Checksum:              300

Satellite: NOAA-11
Catalog number: 19531
Epoch time:      11313.80229277
Element set:    0693
Inclination:      098.7475 deg
RA of node:       038.4706 deg
Eccentricity:    0.0011534
Arg of perigee:   129.4122 deg
Mean anomaly:     230.8103 deg
Mean motion:   14.14935063 rev/day
Decay rate:       1.43e-06 rev/day^2
Epoch rev:           19334
Checksum:              279

Satellite: NOAA-12
Catalog number: 21263
Epoch time:      11313.92664436
Element set:    0208
Inclination:      098.7452 deg
RA of node:       331.4604 deg
Eccentricity:    0.0014496
Arg of perigee:   118.8357 deg
Mean anomaly:     241.4279 deg
Mean motion:   14.25451806 rev/day
Decay rate:       1.34e-06 rev/day^2
Epoch rev:           06517
Checksum:              291

Satellite: MET-3/5
Catalog number: 21655
Epoch time:      11313.91737714
Element set:     255
Inclination:      082.5547 deg
RA of node:       307.8073 deg
Eccentricity:    0.0013972
Arg of perigee:   148.3234 deg
Mean anomaly:     211.8708 deg
Mean motion:   13.17031621 rev/day
Decay rate:        5.1e-07 rev/day^2
Epoch rev:           97290
Checksum:              289

Satellite: MET-2/21
Catalog number: 22782
Epoch time:      11313.74961160
Element set:    0253
Inclination:      082.5509 deg
RA of node:       207.3899 deg
Eccentricity:    0.0023726
Arg of perigee:   053.0766 deg
Mean anomaly:     307.2594 deg
Mean motion:   13.83668243 rev/day
Decay rate:        1.0e-07 rev/day^2
Epoch rev:           91868
Checksum:              311

Satellite: OKEAN-4
Catalog number: 23317
Epoch time:      11313.95734696
Element set:    0755
Inclination:      082.5396 deg
RA of node:       236.9983 deg
Eccentricity:    0.0022257
Arg of perigee:   003.4734 deg
Mean anomaly:     356.6630 deg
Mean motion:   14.83315585 rev/day
Decay rate:      2.437e-05 rev/day^2
Epoch rev:           92215
Checksum:              323

Satellite: NOAA-14
Catalog number: 23455
Epoch time:      11313.96191722
Element set:    0691
Inclination:      098.8449 deg
RA of node:       035.0871 deg
Eccentricity:    0.0008692
Arg of perigee:   223.8517 deg
Mean anomaly:     136.1964 deg
Mean motion:   14.13847880 rev/day
Decay rate:       1.61e-06 rev/day^2
Epoch rev:           86967
Checksum:              333

Satellite: NOAA-15
Catalog number: 25338
Epoch time:      11313.72677295
Element set:    0015
Inclination:      098.6699 deg
RA of node:       297.9891 deg
Eccentricity:    0.0011217
Arg of perigee:   033.8715 deg
Mean anomaly:     326.3178 deg
Mean motion:   14.24978433 rev/day
Decay rate:       2.47e-06 rev/day^2
Epoch rev:           70145
Checksum:              333

Satellite: RESURS
Catalog number: 25394
Epoch time:      11313.95285196
Element set:    0955
Inclination:      098.3056 deg
RA of node:       308.9969 deg
Eccentricity:    0.0001605
Arg of perigee:   131.6526 deg
Mean anomaly:     228.4792 deg
Mean motion:   14.24251937 rev/day
Decay rate:       1.16e-06 rev/day^2
Epoch rev:           69305
Checksum:              319

Satellite: FENGYUN1
Catalog number: 25730
Epoch time:      11313.91005755
Element set:     465
Inclination:      098.8292 deg
RA of node:       272.0103 deg
Eccentricity:    0.0022733
Arg of perigee:   271.6667 deg
Mean anomaly:     088.1894 deg
Mean motion:   14.09021356 rev/day
Decay rate:      2.125e-05 rev/day^2
Epoch rev:           64358
Checksum:              292

Satellite: OKEAN-0
Catalog number: 25860
Epoch time:      11313.99228848
Element set:    0483
Inclination:      097.9047 deg
RA of node:       276.5937 deg
Eccentricity:    0.0000556
Arg of perigee:   079.4737 deg
Mean anomaly:     280.6534 deg
Mean motion:   14.73927997 rev/day
Decay rate:      1.120e-05 rev/day^2
Epoch rev:           66213
Checksum:              340

Satellite: NOAA-16
Catalog number: 26536
Epoch time:      11313.77113698
Element set:    0496
Inclination:      099.1266 deg
RA of node:       347.1704 deg
Eccentricity:    0.0010439
Arg of perigee:   347.6606 deg
Mean anomaly:     012.4301 deg
Mean motion:   14.12665599 rev/day
Decay rate:       1.50e-06 rev/day^2
Epoch rev:           57391
Checksum:              307

